[[{"header":{"parameterUnit":"m.s-1","parameterCategory":2,"la1":30.2991,"la2":30.254,"lo1":-89.0895,"lo2":-89.0444,"dy":0.0017,"dx":0.0017,"nx":28,"ny":28,"refTime":"2023-04-26T21:00:00:Z","depth":"0","parameterNumber":2,"parameterNumberName":"U-component_of_CURRENTS"},"data":[0,0,0,0,0,0,0,0,0,0,0,0,0,0,0,0,0,0,0,0,0,0,0,0,0,0,0,0,0,0,0,0,0,0,0,0,0,0,0,0,0,0,0,0,0,0,0,0,0,0,0,0,0,0,0,0,0,0,0.2332,0.2333,0,0.2436,0.2437,0.2437,0.2423,0.2421,0.242,0.2419,0.2604,0.2611,0.2617,0,0,0,0,0,0,0,0,0,0,0,0,0,0.2172,0.2174,0.2332,0.2334,0.2335,0.2435,0.2437,0.2438,0.2423,0.2421,0.242,0.2418,0.2602,0.261,0.2617,0,0,0,0,0,0,0,0,0,0,0,0,0,0.2251,0.2175,0.2332,0.2343,0.2345,0.2435,0.2437,0.2438,0.2423,0.2421,0.2419,0.2417,0.26,0.2609,0.2618,0.2718,0,0,0.2647,0.2651,0,0,0,0,0,0,0,0,0.2247,0.2257,0.2339,0.2342,0.2345,0.2417,0.2448,0.2537,0.2424,0.239,0.2419,0.2416,0.2554,0.2567,0.2584,0.2727,0.2735,0.2648,0.2653,0.2658,0.266,0,0,0,0,0,0,0,0.2241,0.2253,0.2369,0.2341,0.2345,0.236,0.2368,0.2465,0.2481,0.2393,0.2393,0.2411,0.2555,0.2575,0.2589,0.2738,0.2648,0.2656,0.2662,0.2665,0.3106,0.3111,0,0,0,0,0,0,0.2236,0.2248,0.2366,0.2373,0.2294,0.2365,0.2374,0.2393,0.2478,0.2489,0.2412,0.241,0.256,0.2578,0.2596,0.2777,0.2657,0.2666,0.2672,0.31,0.3107,0.3114,0,0,0,0,0,0,0.2232,0.2246,0.2362,0.2315,0.2331,0.237,0.2392,0.2396,0.2414,0.2493,0.2504,0.2425,0.2559,0.2582,0.271,0.2782,0.267,0.2679,0.3092,0.3102,0.311,0.3104,0,0,0,0,0,0,0.2227,0.2244,0.2262,0.2315,0.2334,0.2424,0.2395,0.24,0.2431,0.2428,0.2509,0.2523,0.2559,0.2696,0.2719,0.2793,0.2686,0.3085,0.3097,0.3107,0.3097,0.3112,0.3125,0,0,0,0,0,0.2221,0.2273,0.2262,0.2277,0.2355,0.2427,0.2438,0.2455,0.2433,0.2459,0.2525,0.252,0.2786,0.2707,0.2733,0.2812,0.3079,0.3093,0.3107,0.309,0.3109,0.3125,0,0,0,0,0,0,0.2229,0.2278,0.2267,0.2332,0.2372,0.2425,0.2468,0.2463,0.2531,0.2532,0.2582,0.2605,0.276,0.2803,0.2715,0.2986,0.294,0.296,0.292,0.2938,0.2952,0.2954,0.2694,0,0,0,0,0,0.2235,0.2274,0.2318,0.237,0.2396,0.2425,0.2456,0.246,0.2525,0.2548,0.2608,0.2709,0.2843,0.2894,0.3013,0.3138,0.3176,0.3221,0.3235,0.3246,0.3276,0.3404,0.343,0.3158,0.3158,0.3158,0,0,0.2257,0.2287,0.2312,0.2372,0.2408,0.2477,0.2439,0.2494,0.2553,0.2567,0.2682,0.2765,0.2897,0.3049,0.3122,0.3081,0.334,0.3263,0.327,0.3295,0.3421,0.3446,0.3469,0.3168,0.3166,0.3165,0,0,0.2348,0.2345,0.242,0.2447,0.2498,0.2518,0.2532,0.2586,0.2612,0.2728,0.2777,0.2901,0.3068,0.3174,0.3254,0.3431,0.3424,0.3471,0.3519,0.3642,0.3663,0.3683,0.3715,0.3738,0.3458,0.3458,0.3458,0,0.2381,0.2457,0.2455,0.2527,0.2563,0.2541,0.2625,0.2663,0.2746,0.2801,0.2776,0.3059,0.3146,0.3354,0.3416,0.3459,0.349,0.3418,0.3651,0.3672,0.3692,0.3721,0.3746,0.3459,0.3459,0.3459,0.3459,0,0.2535,0.2571,0.262,0.2693,0.2733,0.2792,0.283,0.2878,0.2896,0.2939,0.3119,0.3225,0.3385,0.3444,0.3484,0.3686,0.3646,0.3654,0.3577,0.3717,0.3741,0.3766,0.3461,0.3461,0.346,0.346,0,0,0.266,0.272,0.2726,0.2745,0.2809,0.2845,0.2961,0.306,0.3104,0.3201,0.3298,0.3534,0.3537,0.3634,0.3683,0.3783,0.3928,0.3767,0.3773,0.3744,0.4133,0.4078,0.4099,0.3954,0.396,0.3964,0.4071,0,0.278,0.2897,0.2914,0.3002,0.3057,0.306,0.3141,0.3211,0.3264,0.3339,0.3461,0.3573,0.3621,0.3658,0.3789,0.3897,0.4005,0.3894,0.4054,0.4059,0.3948,0.4134,0.4024,0.4111,0.4096,0.41,0.4104,0,0.2924,0.2968,0.3075,0.3095,0.3121,0.3163,0.324,0.3308,0.3416,0.3454,0.3586,0.3636,0.3822,0.3805,0.4083,0.3998,0.4097,0.4162,0.4167,0.4146,0.4056,0.3991,0.4158,0.4033,0.4143,0.4139,0.4137,0,0.2972,0.3063,0.3127,0.3142,0.3192,0.3231,0.3259,0.3349,0.3383,0.35,0.3522,0.3735,0.3798,0.3997,0.4147,0.4123,0.4394,0.4373,0.4423,0.4414,0.4376,0.4356,0.4406,0.4608,0.4608,0.4608,0.4607,0,0.3067,0.3103,0.3126,0.3147,0.3177,0.3222,0.3258,0.3313,0.3381,0.3427,0.355,0.3621,0.3854,0.4013,0.4169,0.4368,0.4432,0.4484,0.4482,0.4368,0.4347,0.4279,0.4187,0.4612,0.4611,0.461,0.4609,0,0.3082,0.3119,0.3153,0.3188,0.3186,0.3189,0.3196,0.3217,0.329,0.3351,0.3381,0.3558,0.377,0.3973,0.426,0.4368,0.445,0.462,0.4421,0.4397,0.4317,0.4228,0.4169,0.4059,0.4704,0.4704,0.4704,0,0.31,0.3122,0.3127,0.3102,0.31,0.31,0.3089,0.3156,0.3184,0.3321,0.3351,0.3545,0.369,0.4039,0.428,0.4533,0.4425,0.4555,0.4543,0.4345,0.4246,0.4056,0.3953,0.4462,0.446,0.4459,0.4457,0,0.3085,0.307,0.3068,0.3024,0.2995,0.2969,0.2975,0.2978,0.3076,0.3144,0.3254,0.3372,0.3714,0.3926,0.4239,0.4409,0.4315,0.4529,0.442,0.4166,0.3873,0.3751,0.428,0.4443,0.4444,0.4445,0.4446,0.4446,0.3009,0.2981,0.2947,0.2889,0.286,0.2806,0.2758,0.2807,0.2832,0.2915,0.3114,0.3271,0.3606,0.4039,0.4176,0.4299,0.4232,0.4262,0.4196,0.4041,0.387,0.4326,0.4427,0.4429,0.443,0.4431,0.4432,0,0.2865,0.2846,0.2807,0.2717,0.2634,0.2668,0.2646,0.2603,0.2603,0.2785,0.2895,0.3231,0.3454,0.3751,0.402,0.3984,0.3866,0.3884,0.361,0.355,0.4072,0.3999,0.3894,0.3894,0.3894,0.3894,0.3895,0.3895,0.2781,0.2692,0.2674,0.2491,0.2436,0.2307,0.227,0.2264,0.236,0.2503,0.27,0.2925,0.3298,0.3593,0.368,0.365,0.3389,0.3247,0.3198,0.3578,0.3607,0.3635,0.3548,0.3351,0.335,0.259,0.2584,0.2579]},{"header":{"parameterUnit":"m.s-1","parameterCategory":2,"la1":30.2991,"la2":30.254,"lo1":-89.0895,"lo2":-89.0444,"dy":0.0017,"dx":0.0017,"nx":28,"ny":28,"refTime":"2023-04-26T21:00:00:Z","depth":"0","parameterNumber":3,"parameterNumberName":"V-component_of_CURRENTS"},"data":[0,0,0,0,0,0,0,0,0,0,0,0,0,0,0,0,0,0,0,0,0,0,0,0,0,0,0,0,0,0,0,0,0,0,0,0,0,0,0,0,0,0,0,0,0,0,0,0,0,0,0,0,0,0,0,0,0,0,0.0055,0.0055,0,0.0144,0.0145,0.0146,0.0122,0.012,0.0118,0.0116,0.0279,0.0286,0.0292,0,0,0,0,0,0,0,0,0,0,0,0,0,-0.0036,-0.0034,0.0055,0.0055,0.0056,0.0143,0.0145,0.0147,0.0123,0.012,0.0117,0.0115,0.0277,0.0285,0.0293,0,0,0,0,0,0,0,0,0,0,0,0,0,0.0028,-0.0034,0.0055,0.0051,0.0051,0.0143,0.0145,0.0147,0.0123,0.012,0.0117,0.0113,0.0275,0.0284,0.0294,0.042,0,0,0.0323,0.0327,0,0,0,0,0,0,0,0,0.0024,0.0031,0.0051,0.0052,0.0052,0.0114,0.0173,0.024,0.0124,0.0101,0.0116,0.0112,0.0231,0.0244,0.0273,0.0427,0.0434,0.0324,0.033,0.0334,0.0337,0,0,0,0,0,0,0,0.0019,0.0028,0.0095,0.0052,0.0052,0.0079,0.0084,0.0186,0.0188,0.0103,0.01,0.0104,0.0231,0.0264,0.0277,0.0437,0.0324,0.0332,0.0338,0.0342,0.0711,0.0715,0,0,0,0,0,0,-0.0002,0.0024,0.0092,0.0097,0.0024,0.0082,0.0088,0.0102,0.0186,0.0193,0.0106,0.0102,0.0249,0.0266,0.0283,0.0482,0.0334,0.0343,0.0348,0.0707,0.0712,0.0716,0,0,0,0,0,0,-0.0004,0.0004,0.0088,0.0058,0.0069,0.0086,0.0102,0.0105,0.0131,0.0186,0.0196,0.0127,0.0247,0.0269,0.0396,0.0486,0.0347,0.0356,0.0702,0.0708,0.0714,0.0852,0,0,0,0,0,0,-0.0007,0.0003,0.0015,0.0057,0.007,0.0165,0.0105,0.0109,0.0136,0.0132,0.0209,0.022,0.0246,0.0382,0.0406,0.0496,0.0363,0.0697,0.0705,0.0712,0.0842,0.0862,0.0878,0,0,0,0,0,-0.001,0.0046,0.0015,0.0023,0.0083,0.0168,0.018,0.0182,0.014,0.0187,0.0233,0.0218,0.0445,0.0394,0.0421,0.0516,0.0693,0.0703,0.0712,0.0834,0.0858,0.0878,0,0,0,0,0,0,0.0031,0.0049,0.0016,0.0075,0.0114,0.0162,0.0213,0.0195,0.0267,0.026,0.0288,0.0308,0.0457,0.0468,0.041,0.0642,0.0562,0.0576,0.0645,0.0668,0.0686,0.0678,0.0371,0,0,0,0,0,0.0037,0.007,0.0093,0.014,0.0167,0.0183,0.0214,0.0212,0.0271,0.0295,0.0349,0.0416,0.0522,0.0573,0.0666,0.0802,0.0754,0.0874,0.0892,0.0907,0.0919,0.0907,0.0923,0.0746,0.0746,0.0746,0,0,0.0062,0.0078,0.0094,0.0148,0.0182,0.0268,0.0198,0.0264,0.0339,0.0311,0.0452,0.0499,0.0575,0.073,0.0794,0.0745,0.0936,0.0919,0.0932,0.0935,0.0918,0.0934,0.0949,0.0752,0.0751,0.075,0,0,0.0166,0.0152,0.0224,0.0267,0.0313,0.0336,0.0353,0.041,0.044,0.0568,0.0573,0.0669,0.0818,0.0893,0.0948,0.1125,0.1041,0.1143,0.1229,0.1218,0.1231,0.1242,0.1201,0.1208,0.1141,0.1141,0.1141,0,0.0197,0.0277,0.0265,0.0358,0.0408,0.0372,0.0479,0.053,0.0617,0.0672,0.0631,0.0849,0.0907,0.1091,0.1144,0.1172,0.1116,0.1139,0.1237,0.1247,0.1256,0.1212,0.1217,0.1149,0.1148,0.1147,0.1146,0,0.036,0.0419,0.0482,0.057,0.0631,0.0717,0.0765,0.0833,0.0844,0.0881,0.104,0.1102,0.1213,0.1256,0.1262,0.1381,0.1305,0.1265,0.117,0.1282,0.1229,0.1231,0.116,0.1157,0.1155,0.1153,0,0,0.0456,0.0568,0.0591,0.0649,0.0741,0.0812,0.095,0.1068,0.1146,0.1212,0.1326,0.1489,0.1453,0.1511,0.1516,0.1508,0.1531,0.1406,0.1401,0.1345,0.1461,0.1351,0.1342,0.1476,0.1478,0.1479,0.1396,0,0.0589,0.0766,0.0801,0.0976,0.107,0.1091,0.1221,0.131,0.1364,0.1464,0.1504,0.1614,0.157,0.1601,0.1602,0.1554,0.1544,0.1555,0.138,0.1375,0.1247,0.1345,0.1313,0.1231,0.1398,0.1398,0.1399,0,0.0746,0.0838,0.1017,0.1152,0.12,0.1295,0.1451,0.1558,0.1673,0.1711,0.1784,0.1779,0.1843,0.1746,0.1706,0.1695,0.1601,0.1532,0.1526,0.1376,0.1271,0.1151,0.1229,0.0989,0.1402,0.1401,0.1401,0,0.0805,0.0992,0.1123,0.1176,0.133,0.1418,0.1502,0.1632,0.1724,0.1835,0.1875,0.1934,0.1935,0.1851,0.1722,0.1697,0.1612,0.1562,0.1383,0.1372,0.1292,0.1271,0.1102,0.1525,0.1526,0.1526,0.1526,0,0.0923,0.1032,0.1151,0.1223,0.1384,0.1473,0.1631,0.1723,0.1845,0.1948,0.1974,0.2028,0.1944,0.1884,0.176,0.1576,0.1642,0.1417,0.1357,0.1339,0.1325,0.1066,0.0967,0.1523,0.1523,0.1524,0.1525,0,0.0959,0.1041,0.1188,0.1351,0.1405,0.151,0.1674,0.1782,0.1882,0.2003,0.2031,0.2083,0.2006,0.1902,0.176,0.1606,0.1318,0.1377,0.1347,0.1286,0.087,0.0783,0.0597,0.0476,0.1164,0.116,0.1158,0,0.0991,0.1069,0.124,0.1315,0.1384,0.1533,0.1636,0.1783,0.1885,0.2027,0.2082,0.2065,0.2079,0.1841,0.1599,0.1375,0.1209,0.1142,0.1111,0.0853,0.0712,0.0675,0.0586,0.106,0.1057,0.1055,0.1053,0,0.1042,0.1087,0.1194,0.1333,0.1447,0.1588,0.1735,0.1818,0.1979,0.2065,0.2161,0.2187,0.1999,0.178,0.1467,0.1289,0.0959,0.1076,0.0838,0.0647,0.0572,0.0424,0.1082,0.103,0.1032,0.1034,0.1035,0.1036,0.1054,0.1117,0.1233,0.1367,0.1493,0.1633,0.1726,0.1867,0.2008,0.2156,0.2194,0.225,0.1967,0.1557,0.1263,0.0686,0.0757,0.0507,0.0431,0.0423,0.0284,0.0868,0.0723,0.0724,0.0724,0.0725,0.0725,0,0.1072,0.1147,0.1264,0.1419,0.1533,0.1611,0.1791,0.1871,0.1997,0.2158,0.2249,0.2176,0.1728,0.1295,0.0571,0.0135,0.003,-0.0097,-0.0143,-0.0199,0.0339,0.0307,0.003,0.003,0.003,0.003,0.0031,0.0031,0.1085,0.1181,0.1242,0.1418,0.1521,0.1655,0.1744,0.1863,0.1997,0.2145,0.2227,0.2329,0.2026,0.073,-0.0229,-0.0435,-0.0703,-0.0742,-0.0891,-0.053,-0.0478,-0.043,-0.0486,-0.0924,-0.0925,-0.1382,-0.1387,-0.1391]}],[{"header":{"parameterUnit":"m.s-1","parameterCategory":2,"la1":30.2991,"la2":30.254,"lo1":-89.0895,"lo2":-89.0444,"dy":0.0017,"dx":0.0017,"nx":28,"ny":28,"refTime":"2023-04-26T21:00:00:Z","depth":"2","parameterNumber":2,"parameterNumberName":"U-component_of_CURRENTS"},"data":[0,0,0,0,0,0,0,0,0,0,0,0,0,0,0,0,0,0,0,0,0,0,0,0,0,0,0,0,0,0,0,0,0,0,0,0,0,0,0,0,0,0,0,0,0,0,0,0,0,0,0,0,0,0,0,0,0,0,0.2399,0.2399,0,0.2419,0.2419,0.2419,0.2436,0.2437,0.2437,0.2438,0.2387,0.2385,0.2383,0,0,0,0,0,0,0,0,0,0,0,0,0,0.2276,0.2278,0.2399,0.2399,0.24,0.2419,0.2419,0.2419,0.2436,0.2437,0.2437,0.2438,0.2387,0.2385,0.2383,0,0,0,0,0,0,0,0,0,0,0,0,0,0.2314,0.2279,0.2399,0.2413,0.2414,0.2419,0.2419,0.2419,0.2436,0.2437,0.2438,0.2438,0.2388,0.2385,0.2383,0.2354,0,0,0.2375,0.2374,0,0,0,0,0,0,0,0,0.2312,0.2318,0.241,0.2412,0.2413,0.2428,0.2357,0.2395,0.2436,0.2425,0.2438,0.2438,0.2395,0.2392,0.2392,0.2352,0.2349,0.2375,0.2373,0.2372,0.2371,0,0,0,0,0,0,0,0.2309,0.2317,0.2404,0.2411,0.2413,0.2384,0.2391,0.2364,0.2403,0.2426,0.2428,0.2434,0.2395,0.2394,0.2391,0.2349,0.2375,0.2372,0.2371,0.237,0.2348,0.2349,0,0,0,0,0,0,0.2317,0.2315,0.2404,0.2405,0.2366,0.2386,0.2393,0.2421,0.2405,0.2405,0.2434,0.2435,0.2399,0.2394,0.2389,0.2466,0.2372,0.2369,0.2368,0.2347,0.2348,0.2349,0,0,0,0,0,0,0.2314,0.2325,0.2403,0.2361,0.2369,0.2389,0.2418,0.2421,0.2451,0.2412,0.241,0.2465,0.2399,0.2392,0.2394,0.2459,0.2368,0.2366,0.2345,0.2347,0.2348,0.2547,0,0,0,0,0,0,0.2311,0.2325,0.2349,0.2362,0.2372,0.2443,0.2418,0.2421,0.2453,0.2456,0.2437,0.2432,0.2399,0.2399,0.2392,0.2454,0.2364,0.2344,0.2346,0.2348,0.2539,0.2555,0.2568,0,0,0,0,0,0.2307,0.2349,0.235,0.2361,0.2405,0.2445,0.2448,0.246,0.2455,0.2485,0.2464,0.2434,0.2405,0.2398,0.2389,0.2452,0.2343,0.2346,0.2348,0.2532,0.2552,0.2568,0,0,0,0,0,0,0.2323,0.2355,0.2357,0.2411,0.2439,0.245,0.2473,0.2479,0.2487,0.2486,0.2446,0.244,0.2461,0.2417,0.2409,0.2444,0.2369,0.237,0.2512,0.253,0.2544,0.2532,0.2362,0,0,0,0,0,0.2333,0.2372,0.2395,0.2445,0.2454,0.2466,0.2482,0.2496,0.2502,0.2508,0.2499,0.2473,0.2457,0.2464,0.2433,0.2458,0.2406,0.2488,0.2503,0.2516,0.2496,0.247,0.2482,0.2356,0.2356,0.2356,0,0,0.2357,0.2378,0.2404,0.245,0.2463,0.2489,0.2479,0.2522,0.2548,0.2496,0.2532,0.252,0.2468,0.2499,0.2506,0.248,0.2534,0.2519,0.2532,0.2503,0.2474,0.2486,0.2497,0.2358,0.2357,0.2357,0,0,0.2417,0.2439,0.2482,0.2502,0.2534,0.2532,0.2554,0.2583,0.2601,0.2635,0.2599,0.2625,0.261,0.2601,0.2586,0.2654,0.2601,0.2657,0.2745,0.2723,0.2734,0.2742,0.2742,0.2749,0.2681,0.2682,0.2682,0,0.2449,0.2487,0.2505,0.254,0.2551,0.2556,0.259,0.2608,0.2642,0.2655,0.2667,0.2668,0.2653,0.267,0.2715,0.2693,0.2672,0.2697,0.2746,0.2753,0.2758,0.2755,0.276,0.2692,0.2691,0.269,0.2689,0,0.2525,0.2548,0.2574,0.2607,0.2634,0.2663,0.2679,0.2716,0.2736,0.2752,0.2796,0.2792,0.2799,0.2819,0.2799,0.284,0.2814,0.2763,0.2713,0.2783,0.2775,0.2777,0.2706,0.2702,0.2699,0.2697,0,0,0.2613,0.262,0.2632,0.2622,0.2659,0.268,0.273,0.276,0.2783,0.2845,0.2877,0.2919,0.2941,0.2922,0.2921,0.2925,0.2992,0.2888,0.2882,0.2908,0.2969,0.3019,0.3025,0.2964,0.2964,0.2964,0.2969,0,0.2657,0.2684,0.2702,0.2728,0.272,0.2742,0.2785,0.2824,0.2853,0.2889,0.2915,0.2949,0.2972,0.301,0.3024,0.2973,0.2996,0.2996,0.2874,0.2871,0.2924,0.3027,0.2706,0.2689,0.2969,0.2969,0.2969,0,0.2708,0.2709,0.2729,0.2725,0.2736,0.2781,0.2817,0.2861,0.2911,0.2951,0.3009,0.3013,0.3066,0.3055,0.3054,0.3059,0.3039,0.3002,0.3,0.2964,0.2922,0.2648,0.2679,0.2971,0.297,0.297,0.297,0,0.2683,0.2715,0.271,0.2716,0.2744,0.2789,0.2829,0.2892,0.2928,0.2999,0.304,0.3077,0.3115,0.3089,0.3091,0.3071,0.3052,0.3,0.3022,0.3025,0.268,0.2654,0.2981,0.298,0.298,0.298,0.298,0,0.2661,0.266,0.2705,0.2699,0.2741,0.2787,0.2851,0.2905,0.2977,0.3016,0.3086,0.312,0.3125,0.3127,0.3097,0.31,0.3075,0.3052,0.3034,0.2749,0.273,0.2891,0.288,0.2981,0.2981,0.2981,0.2981,0,0.2588,0.2613,0.2616,0.2679,0.2717,0.2755,0.2871,0.2905,0.3005,0.3055,0.3093,0.3161,0.3198,0.3196,0.3151,0.3131,0.3097,0.3096,0.2797,0.2748,0.3076,0.3075,0.3107,0.3109,0.3111,0.3112,0.3114,0,0.2521,0.2521,0.2603,0.2638,0.2675,0.2754,0.2812,0.292,0.2955,0.307,0.3075,0.3161,0.3183,0.3192,0.3117,0.3086,0.3159,0.284,0.2753,0.3112,0.3091,0.3088,0.3085,0.2369,0.2364,0.236,0.2356,0,0.2418,0.2478,0.2495,0.2581,0.2652,0.2701,0.2791,0.2814,0.2926,0.2981,0.3031,0.3059,0.3078,0.2922,0.295,0.2871,0.2826,0.2766,0.3157,0.2439,0.243,0.2406,0.2423,0.232,0.2323,0.2326,0.2328,0.2329,0.2366,0.2375,0.2449,0.252,0.2601,0.2642,0.2659,0.2716,0.2762,0.2733,0.2814,0.2744,0.2738,0.2608,0.2543,0.25,0.268,0.2543,0.2547,0.2558,0.2524,0.2524,0.2425,0.2428,0.2432,0.2435,0.2438,0,0.2296,0.2344,0.2389,0.2468,0.2512,0.2607,0.2639,0.2596,0.26,0.2507,0.2465,0.2168,0.2092,0.2154,0.2019,0.206,0.1925,0.2007,0.1789,0.1827,0.186,0.1784,0.1491,0.1489,0.1487,0.1485,0,0,0.2265,0.2283,0.2308,0.2367,0.2452,0.2487,0.2497,0.2405,0.2321,0.2048,0.1912,0.1857,0.2038,0.171,0.1682,0.1598,0.1686,0.1514,0.2258,0.2034,0.2064,0.2146,0.2072,0,0,0,0,0]},{"header":{"parameterUnit":"m.s-1","parameterCategory":2,"la1":30.2991,"la2":30.254,"lo1":-89.0895,"lo2":-89.0444,"dy":0.0017,"dx":0.0017,"nx":28,"ny":28,"refTime":"2023-04-26T21:00:00:Z","depth":"2","parameterNumber":3,"parameterNumberName":"V-component_of_CURRENTS"},"data":[0,0,0,0,0,0,0,0,0,0,0,0,0,0,0,0,0,0,0,0,0,0,0,0,0,0,0,0,0,0,0,0,0,0,0,0,0,0,0,0,0,0,0,0,0,0,0,0,0,0,0,0,0,0,0,0,0,0,-0.0467,-0.0469,0,-0.0677,-0.0679,-0.0682,-0.074,-0.0739,-0.0738,-0.0736,-0.0947,-0.0954,-0.0961,0,0,0,0,0,0,0,0,0,0,0,0,0,-0.0272,-0.0274,-0.0467,-0.0469,-0.0472,-0.0676,-0.0679,-0.0682,-0.0741,-0.0739,-0.0737,-0.0736,-0.0945,-0.0953,-0.0961,0,0,0,0,0,0,0,0,0,0,0,0,0,-0.0407,-0.0275,-0.0466,-0.0525,-0.0532,-0.0676,-0.068,-0.0683,-0.0741,-0.0739,-0.0737,-0.0735,-0.0942,-0.0952,-0.0962,-0.1064,0,0,-0.0993,-0.0998,0,0,0,0,0,0,0,0,-0.0399,-0.0414,-0.0513,-0.0521,-0.0529,-0.0679,-0.0688,-0.081,-0.0741,-0.0663,-0.0736,-0.0734,-0.0859,-0.0875,-0.0921,-0.1074,-0.1083,-0.0994,-0.1001,-0.1005,-0.1008,0,0,0,0,0,0,0,-0.039,-0.0407,-0.0551,-0.0516,-0.0526,-0.0594,-0.061,-0.0712,-0.077,-0.0669,-0.0674,-0.0696,-0.0863,-0.0911,-0.0926,-0.1086,-0.0994,-0.1003,-0.1009,-0.1013,-0.1284,-0.1285,0,0,0,0,0,0,-0.0356,-0.0397,-0.0544,-0.0557,-0.0457,-0.0598,-0.0616,-0.0634,-0.0769,-0.0787,-0.0698,-0.0698,-0.0894,-0.0914,-0.0934,-0.1006,-0.1005,-0.1014,-0.102,-0.1283,-0.1285,-0.1286,0,0,0,0,0,0,-0.0351,-0.0367,-0.0536,-0.0481,-0.0507,-0.0602,-0.0623,-0.0639,-0.0667,-0.079,-0.0808,-0.0705,-0.0894,-0.0919,-0.1022,-0.1016,-0.1019,-0.1028,-0.1282,-0.1284,-0.1285,-0.1187,0,0,0,0,0,0,-0.0345,-0.0364,-0.0364,-0.0479,-0.0509,-0.061,-0.0625,-0.0645,-0.0684,-0.0686,-0.0804,-0.0822,-0.0894,-0.1006,-0.1032,-0.1031,-0.1036,-0.1281,-0.1283,-0.1285,-0.1189,-0.1185,-0.1182,0,0,0,0,0,-0.0337,-0.037,-0.0363,-0.038,-0.0506,-0.0611,-0.0633,-0.0695,-0.0686,-0.0709,-0.0788,-0.0817,-0.1036,-0.1017,-0.1046,-0.1047,-0.128,-0.1282,-0.1284,-0.1191,-0.1186,-0.1182,0,0,0,0,0,0,-0.0288,-0.0382,-0.0376,-0.0432,-0.0497,-0.0619,-0.0671,-0.0683,-0.0766,-0.0761,-0.0853,-0.088,-0.0965,-0.103,-0.1005,-0.1132,-0.1155,-0.1164,-0.1074,-0.107,-0.1067,-0.1011,-0.1045,0,0,0,0,0,-0.0272,-0.0317,-0.0399,-0.0438,-0.048,-0.0559,-0.0606,-0.0629,-0.0719,-0.075,-0.0821,-0.0908,-0.1007,-0.1052,-0.1149,-0.123,-0.1261,-0.1246,-0.1242,-0.1238,-0.1215,-0.1294,-0.1294,-0.1294,-0.1294,-0.1293,0,0,-0.0256,-0.032,-0.0337,-0.043,-0.0501,-0.0563,-0.0585,-0.0651,-0.0677,-0.0765,-0.0831,-0.0906,-0.1029,-0.1116,-0.1157,-0.1163,-0.1249,-0.1241,-0.1237,-0.1215,-0.1296,-0.1296,-0.1296,-0.1295,-0.1295,-0.1295,0,0,-0.0292,-0.0315,-0.0375,-0.0428,-0.0514,-0.0561,-0.0564,-0.0654,-0.0673,-0.0739,-0.081,-0.0874,-0.1015,-0.1094,-0.1157,-0.1196,-0.1233,-0.1221,-0.1155,-0.1232,-0.1232,-0.1232,-0.1231,-0.1232,-0.1212,-0.1212,-0.1211,0,-0.0259,-0.0345,-0.0405,-0.048,-0.0518,-0.055,-0.06,-0.0643,-0.0731,-0.0747,-0.074,-0.0917,-0.1003,-0.1119,-0.1117,-0.1183,-0.1208,-0.1156,-0.1223,-0.1224,-0.1226,-0.1226,-0.1228,-0.1207,-0.1208,-0.1208,-0.1209,0,-0.0362,-0.0399,-0.0452,-0.0537,-0.0577,-0.0631,-0.0677,-0.0692,-0.0689,-0.0716,-0.0785,-0.0889,-0.0976,-0.1017,-0.1076,-0.1139,-0.1142,-0.1211,-0.122,-0.1219,-0.122,-0.1224,-0.1201,-0.1202,-0.1204,-0.1205,0,0,-0.0362,-0.0488,-0.0498,-0.0518,-0.0598,-0.0638,-0.0673,-0.0719,-0.0718,-0.0756,-0.0771,-0.0897,-0.0893,-0.0962,-0.1036,-0.1087,-0.1102,-0.1129,-0.1135,-0.1099,-0.1211,-0.1099,-0.1093,-0.1185,-0.1186,-0.1187,-0.1189,0,-0.0414,-0.0531,-0.0574,-0.0626,-0.0686,-0.069,-0.0712,-0.0731,-0.0741,-0.0757,-0.0814,-0.0864,-0.0895,-0.0911,-0.0966,-0.1089,-0.1114,-0.109,-0.1241,-0.1243,-0.1123,-0.1096,-0.1053,-0.1043,-0.1194,-0.1195,-0.1195,0,-0.0521,-0.057,-0.0642,-0.0655,-0.0676,-0.0682,-0.0686,-0.07,-0.0727,-0.0724,-0.0751,-0.0792,-0.0855,-0.0881,-0.1022,-0.1003,-0.1074,-0.1152,-0.1157,-0.1086,-0.114,-0.1082,-0.1046,-0.1202,-0.1202,-0.1201,-0.1201,0,-0.0545,-0.0614,-0.0653,-0.0671,-0.0699,-0.0684,-0.067,-0.0685,-0.067,-0.0686,-0.0667,-0.0755,-0.0771,-0.0892,-0.0985,-0.1018,-0.1124,-0.1213,-0.1171,-0.1162,-0.1169,-0.1158,-0.1299,-0.1299,-0.1299,-0.1299,-0.1299,0,-0.0619,-0.0645,-0.065,-0.0672,-0.0646,-0.0661,-0.0622,-0.062,-0.0603,-0.0568,-0.0625,-0.0613,-0.0776,-0.0844,-0.0959,-0.1028,-0.1101,-0.1124,-0.1158,-0.1128,-0.1114,-0.1305,-0.1306,-0.1299,-0.1299,-0.1299,-0.1299,0,-0.0666,-0.0695,-0.0712,-0.0692,-0.0671,-0.0639,-0.056,-0.0528,-0.0514,-0.047,-0.046,-0.051,-0.0567,-0.0702,-0.0883,-0.0962,-0.1078,-0.1089,-0.0981,-0.1,-0.1069,-0.1065,-0.1055,-0.1051,-0.1047,-0.1045,-0.1042,0,-0.071,-0.0732,-0.0693,-0.0657,-0.0635,-0.0575,-0.0523,-0.0485,-0.0442,-0.0396,-0.0372,-0.0393,-0.035,-0.0517,-0.0697,-0.0832,-0.0944,-0.0895,-0.0956,-0.101,-0.1046,-0.1047,-0.1048,-0.0925,-0.0922,-0.092,-0.0918,0,-0.0729,-0.0708,-0.0692,-0.0624,-0.0558,-0.0488,-0.0407,-0.0363,-0.0303,-0.0227,-0.0133,-0.0079,-0.0195,-0.0288,-0.0462,-0.0591,-0.0869,-0.0843,-0.0976,-0.0968,-0.0882,-0.0919,-0.0926,-0.0895,-0.0897,-0.0899,-0.09,-0.0901,-0.0693,-0.0664,-0.0618,-0.0549,-0.0476,-0.0379,-0.0299,-0.0199,-0.007,0.0118,0.0111,0.026,0.0044,-0.0083,-0.0315,-0.0597,-0.064,-0.0761,-0.0773,-0.0787,-0.0746,-0.0657,-0.0616,-0.0617,-0.0617,-0.0618,-0.0618,0,-0.0619,-0.0588,-0.0531,-0.0434,-0.0337,-0.0314,-0.0201,-0.0077,0.0122,0.0328,0.052,0.0464,0.0361,0.0079,-0.0291,-0.0504,-0.0592,-0.059,-0.068,-0.0699,-0.0716,-0.0678,-0.0527,-0.0527,-0.0528,-0.0528,0,0,-0.0566,-0.0496,-0.0472,-0.0307,-0.0233,-0.0091,-0.0012,0.0186,0.0348,0.0653,0.0794,0.0924,0.0513,0.0282,-0.0061,-0.0295,-0.0441,-0.0335,-0.0384,-0.0467,-0.0481,-0.079,-0.0745,0,0,0,0,0]}],[{"header":{"parameterUnit":"m.s-1","parameterCategory":2,"la1":30.2991,"la2":30.254,"lo1":-89.0895,"lo2":-89.0444,"dy":0.0017,"dx":0.0017,"nx":28,"ny":28,"refTime":"2023-04-26T21:00:00:Z","depth":"4","parameterNumber":2,"parameterNumberName":"U-component_of_CURRENTS"},"data":[0,0,0,0,0,0,0,0,0,0,0,0,0,0,0,0,0,0,0,0,0,0,0,0,0,0,0,0,0,0,0,0,0,0,0,0,0,0,0,0,0,0,0,0,0,0,0,0,0,0,0,0,0,0,0,0,0,0,0.0491,0.0492,0,0.0592,0.0594,0.0595,0.0765,0.0768,0.0771,0.0774,0.1093,0.1099,0.1104,0,0,0,0,0,0,0,0,0,0,0,0,0,0.0417,0.0418,0.0491,0.0492,0.0493,0.0592,0.0594,0.0595,0.0765,0.0768,0.0772,0.0776,0.1092,0.1098,0.1105,0,0,0,0,0,0,0,0,0,0,0,0,0,0.0478,0.0418,0.0491,0.0589,0.0599,0.0592,0.0594,0.0596,0.0764,0.0769,0.0773,0.0778,0.1089,0.1098,0.1106,0.1065,0,0,0.1132,0.1135,0,0,0,0,0,0,0,0,0.0474,0.048,0.0574,0.0582,0.0593,0.067,0.0685,0.0763,0.0763,0.0702,0.0774,0.078,0.0968,0.0987,0.0993,0.108,0.1093,0.1132,0.1137,0.1141,0.1143,0,0,0,0,0,0,0,0.047,0.0477,0.0532,0.0574,0.0586,0.0619,0.0633,0.0699,0.0812,0.0708,0.072,0.0729,0.0976,0.0985,0.1003,0.1098,0.1132,0.114,0.1145,0.1148,0.1384,0.1385,0,0,0,0,0,0,0.0452,0.0472,0.0529,0.0535,0.0543,0.0617,0.0633,0.0641,0.0807,0.0835,0.0725,0.0736,0.0968,0.0993,0.1015,0.1194,0.1141,0.1149,0.1154,0.1383,0.1384,0.1386,0,0,0,0,0,0,0.045,0.0455,0.0525,0.0506,0.0517,0.0613,0.0622,0.0641,0.0759,0.0818,0.0851,0.0836,0.0973,0.1003,0.1166,0.12,0.1153,0.116,0.1382,0.1383,0.1385,0.1413,0,0,0,0,0,0,0.0447,0.0454,0.0482,0.0504,0.0517,0.0567,0.0618,0.064,0.075,0.0769,0.0921,0.0949,0.0979,0.1153,0.1174,0.1211,0.1167,0.138,0.1382,0.1385,0.1411,0.1416,0.142,0,0,0,0,0,0.0444,0.0468,0.0482,0.0491,0.0543,0.0568,0.0579,0.0663,0.0752,0.0792,0.0922,0.095,0.1181,0.1163,0.1187,0.1226,0.1379,0.1382,0.1384,0.1409,0.1415,0.142,0,0,0,0,0,0,0.0462,0.0487,0.0505,0.0539,0.0568,0.0599,0.0651,0.0716,0.0843,0.091,0.0989,0.1024,0.1163,0.1196,0.1173,0.1296,0.1275,0.1282,0.1285,0.1291,0.1296,0.1295,0.1174,0,0,0,0,0,0.0465,0.0499,0.0512,0.0548,0.0565,0.0627,0.0666,0.0727,0.082,0.0887,0.1001,0.1106,0.1166,0.1242,0.1299,0.1394,0.14,0.1426,0.143,0.1434,0.1448,0.1459,0.1465,0.1395,0.1395,0.1395,0,0,0.0482,0.0503,0.0524,0.0555,0.0592,0.0637,0.0667,0.0752,0.0841,0.0899,0.1102,0.1143,0.1195,0.1285,0.1348,0.1341,0.1462,0.1438,0.1441,0.1453,0.1462,0.1469,0.1475,0.1397,0.1396,0.1396,0,0,0.0503,0.0551,0.057,0.061,0.0672,0.0705,0.0754,0.0841,0.0939,0.108,0.1134,0.1215,0.1354,0.1372,0.1396,0.1469,0.148,0.1487,0.1529,0.1538,0.1544,0.1549,0.158,0.1587,0.1496,0.1496,0.1496,0,0.0535,0.0554,0.0582,0.0621,0.0681,0.0753,0.0812,0.0895,0.1047,0.1124,0.1167,0.1329,0.1379,0.1447,0.1458,0.1481,0.1495,0.1502,0.1543,0.1548,0.1553,0.1583,0.1591,0.1498,0.1498,0.1498,0.1497,0,0.0547,0.0601,0.063,0.0703,0.0764,0.0838,0.0932,0.1052,0.1178,0.1243,0.1383,0.1424,0.1506,0.1514,0.1515,0.1563,0.1567,0.154,0.1525,0.1561,0.1592,0.1599,0.15,0.15,0.1499,0.1499,0,0,0.0534,0.062,0.0641,0.0694,0.0834,0.0878,0.1041,0.1159,0.128,0.1398,0.1518,0.1577,0.1591,0.1615,0.1612,0.162,0.1655,0.1601,0.16,0.1627,0.1701,0.1504,0.1494,0.1634,0.1635,0.1636,0.1714,0,0.0548,0.06,0.0677,0.08,0.0836,0.099,0.1127,0.1266,0.1388,0.1524,0.1565,0.1662,0.1632,0.1661,0.1664,0.1664,0.1675,0.1638,0.1668,0.1669,0.1484,0.1495,0.1639,0.172,0.1722,0.1723,0.1724,0,0.0523,0.0569,0.0657,0.0831,0.0875,0.1004,0.1229,0.1352,0.1533,0.1623,0.1704,0.1745,0.1796,0.1745,0.1777,0.1759,0.1736,0.1723,0.1724,0.1535,0.1484,0.1674,0.1737,0.1736,0.1735,0.1734,0.1734,0,0.0424,0.0568,0.0642,0.0708,0.0908,0.1051,0.1192,0.1396,0.1517,0.1681,0.1762,0.1828,0.1874,0.1862,0.1841,0.1822,0.1858,0.1824,0.1632,0.1621,0.1765,0.1759,0.1827,0.1827,0.1827,0.1827,0.1826,0,0.0392,0.0457,0.0626,0.068,0.0841,0.1014,0.122,0.1363,0.1569,0.1637,0.1796,0.1806,0.1902,0.1928,0.1886,0.1781,0.1896,0.1641,0.1615,0.1778,0.1773,0.1772,0.1764,0.183,0.1829,0.1828,0.1828,0,0.0284,0.0373,0.0468,0.0702,0.0791,0.0917,0.123,0.1348,0.1561,0.1649,0.17,0.1842,0.1824,0.1911,0.1895,0.1821,0.1753,0.1683,0.1891,0.1876,0.151,0.1504,0.1487,0.148,0.1474,0.147,0.1466,0,0.0235,0.0261,0.0458,0.0547,0.0692,0.0904,0.1042,0.1299,0.1373,0.1572,0.1551,0.1664,0.1695,0.1627,0.1653,0.1639,0.1584,0.1613,0.1517,0.1492,0.1471,0.1473,0.1474,0.1457,0.1456,0.1454,0.1453,0,0.0166,0.0238,0.0331,0.0465,0.0631,0.0789,0.0979,0.1012,0.1215,0.1406,0.1404,0.1443,0.1428,0.1435,0.149,0.143,0.1634,0.1554,0.1564,0.1474,0.1457,0.1441,0.1449,0.1433,0.1436,0.1438,0.1439,0,0.0143,0.0171,0.0274,0.0417,0.0565,0.0649,0.0766,0.0869,0.0985,0.118,0.1102,0.1224,0.1335,0.1312,0.1288,0.1303,0.1243,0.1231,0.1257,0.1278,0.1162,0.1106,0.095,0,0,0,0,0,0.0132,0.0146,0.0231,0.0352,0.048,0.0576,0.071,0.0807,0.0915,0.088,0.1031,0.099,0.102,0.1058,0.1018,0.11,0.1214,0.1043,0.1204,0.1326,0.1349,0.1224,0,0,0,0,0,0,0.0116,0.0168,0.0182,0.0268,0.0345,0.0467,0.0545,0.0625,0.0622,0.0747,0.0773,0.0913,0.0952,0.1044,0.1,0.101,0.1082,0.112,0.1116,0.1314,0.1334,0.1352,0.1231,0,0,0,0,0]},{"header":{"parameterUnit":"m.s-1","parameterCategory":2,"la1":30.2991,"la2":30.254,"lo1":-89.0895,"lo2":-89.0444,"dy":0.0017,"dx":0.0017,"nx":28,"ny":28,"refTime":"2023-04-26T21:00:00:Z","depth":"4","parameterNumber":3,"parameterNumberName":"V-component_of_CURRENTS"},"data":[0,0,0,0,0,0,0,0,0,0,0,0,0,0,0,0,0,0,0,0,0,0,0,0,0,0,0,0,0,0,0,0,0,0,0,0,0,0,0,0,0,0,0,0,0,0,0,0,0,0,0,0,0,0,0,0,0,0,0.0459,0.0459,0,0.0437,0.0436,0.0436,0.0404,0.0404,0.0404,0.0405,0.0218,0.0213,0.0208,0,0,0,0,0,0,0,0,0,0,0,0,0,0.0398,0.04,0.0459,0.0459,0.046,0.0437,0.0436,0.0435,0.0404,0.0404,0.0404,0.0405,0.022,0.0214,0.0208,0,0,0,0,0,0,0,0,0,0,0,0,0,0.0398,0.04,0.0459,0.0447,0.0447,0.0438,0.0436,0.0435,0.0404,0.0404,0.0405,0.0405,0.0222,0.0214,0.0207,0.0153,0,0,0.0183,0.018,0,0,0,0,0,0,0,0,0.0398,0.0399,0.0449,0.0448,0.0448,0.0431,0.0347,0.0335,0.0404,0.0411,0.0405,0.0405,0.0279,0.0267,0.0253,0.0144,0.0136,0.0183,0.0178,0.0175,0.0172,0,0,0,0,0,0,0,0.0398,0.04,0.0442,0.0449,0.0449,0.0419,0.0419,0.0345,0.0334,0.0411,0.0411,0.0421,0.0277,0.026,0.0248,0.0134,0.0183,0.0176,0.0171,0.0168,-0.0069,-0.0071,0,0,0,0,0,0,0.0421,0.04,0.0443,0.0442,0.0432,0.0421,0.042,0.0429,0.0339,0.0329,0.0421,0.042,0.0273,0.0257,0.0241,0.0128,0.0175,0.0167,0.0163,-0.0068,-0.007,-0.0071,0,0,0,0,0,0,0.042,0.0425,0.0444,0.0427,0.0428,0.0423,0.0432,0.0429,0.043,0.035,0.0335,0.0429,0.0273,0.0252,0.0183,0.0122,0.0164,0.0157,-0.0066,-0.0068,-0.007,-0.0072,0,0,0,0,0,0,0.0418,0.0425,0.0441,0.0429,0.0431,0.0441,0.0433,0.0428,0.0439,0.0437,0.0351,0.0334,0.0272,0.0195,0.0176,0.0112,0.0151,-0.0063,-0.0067,-0.007,-0.0069,-0.0074,-0.0078,0,0,0,0,0,0.0416,0.0443,0.0442,0.0447,0.0453,0.0442,0.0438,0.0429,0.044,0.0432,0.038,0.0337,0.016,0.0189,0.0166,0.0098,-0.0062,-0.0066,-0.0069,-0.0068,-0.0073,-0.0078,0,0,0,0,0,0,0.0411,0.0442,0.0441,0.0471,0.0459,0.044,0.045,0.0443,0.04,0.0402,0.0327,0.0304,0.0215,0.0168,0.0201,0.0021,0.0036,0.0028,0.0045,0.004,0.0036,0.0066,0.0144,0,0,0,0,0,0.0423,0.0458,0.0457,0.0477,0.0482,0.0469,0.0469,0.0459,0.0426,0.041,0.0342,0.0265,0.0178,0.0126,0.0049,-0.0041,-0.0046,-0.0103,-0.0107,-0.011,-0.0101,-0.0134,-0.014,-0.0084,-0.0084,-0.0084,0,0,0.0423,0.045,0.0465,0.048,0.0477,0.0479,0.0467,0.0473,0.0456,0.0391,0.0336,0.0254,0.0157,0.0051,0.0004,0.0004,-0.0131,-0.0115,-0.0117,-0.0106,-0.0139,-0.0144,-0.0148,-0.0086,-0.0086,-0.0085,0,0,0.0443,0.0469,0.0501,0.0502,0.0514,0.05,0.0509,0.0483,0.0455,0.0388,0.0332,0.024,0.0103,0.0021,-0.0038,-0.0104,-0.0141,-0.0156,-0.017,-0.0203,-0.0207,-0.0211,-0.0225,-0.0229,-0.017,-0.017,-0.017,0,0.0437,0.0488,0.05,0.0525,0.0537,0.0517,0.0531,0.0493,0.0436,0.0397,0.037,0.0173,0.009,-0.0032,-0.0078,-0.0114,-0.0132,-0.0143,-0.0206,-0.0209,-0.0213,-0.0226,-0.0231,-0.017,-0.017,-0.017,-0.017,0,0.0481,0.0515,0.0535,0.0565,0.0564,0.0578,0.0542,0.0506,0.0462,0.0403,0.0278,0.016,0.0037,-0.0025,-0.0087,-0.0183,-0.0185,-0.0193,-0.0184,-0.0218,-0.0231,-0.0236,-0.0171,-0.0171,-0.0171,-0.0171,0,0,0.0488,0.0553,0.0562,0.0586,0.0595,0.0598,0.0562,0.0513,0.0485,0.0367,0.0303,0.0115,0.0039,-0.003,-0.0126,-0.0179,-0.0239,-0.0214,-0.0215,-0.021,-0.0306,-0.0294,-0.0298,-0.0264,-0.0266,-0.0266,-0.0304,0,0.0518,0.0569,0.0602,0.0637,0.0654,0.0638,0.0609,0.0552,0.0471,0.0392,0.0248,0.0139,0.004,-0.0039,-0.0112,-0.0204,-0.0254,-0.0227,-0.0288,-0.029,-0.026,-0.0304,-0.027,-0.0308,-0.0309,-0.031,-0.031,0,0.0557,0.059,0.0638,0.0674,0.0684,0.0705,0.0669,0.0623,0.0502,0.0428,0.0288,0.0185,0.0038,-0.0014,-0.0179,-0.0163,-0.0241,-0.0296,-0.0298,-0.0285,-0.0287,-0.027,-0.032,-0.0319,-0.0318,-0.0318,-0.0317,0,0.0552,0.0618,0.0665,0.0682,0.0712,0.0731,0.0714,0.0628,0.0596,0.0437,0.04,0.0213,0.0131,-0.0001,-0.0162,-0.0177,-0.0293,-0.0316,-0.0366,-0.0365,-0.036,-0.0356,-0.04,-0.04,-0.04,-0.04,-0.04,0,0.057,0.0609,0.0681,0.071,0.0758,0.0749,0.0764,0.0695,0.0631,0.0574,0.041,0.0333,0.0131,0.0024,-0.0125,-0.0264,-0.0269,-0.0368,-0.038,-0.0362,-0.0357,-0.0364,-0.0359,-0.0401,-0.0401,-0.0401,-0.04,0,0.0552,0.0602,0.067,0.0739,0.0765,0.0781,0.0825,0.082,0.0737,0.0664,0.0617,0.0443,0.0263,0.0101,-0.0098,-0.0192,-0.0334,-0.0374,-0.0325,-0.0332,-0.039,-0.0385,-0.0435,-0.0435,-0.0435,-0.0435,-0.0435,0,0.0538,0.0578,0.0693,0.0748,0.0801,0.0843,0.0876,0.0846,0.0819,0.0705,0.0661,0.0511,0.0361,0.0118,-0.0072,-0.03,-0.0339,-0.0377,-0.0417,-0.039,-0.0397,-0.0392,-0.0387,-0.0435,-0.0435,-0.0435,-0.0435,0,0.0519,0.0589,0.066,0.0746,0.0834,0.0918,0.0939,0.0911,0.0835,0.0839,0.0671,0.0509,0.0333,0.0098,-0.0051,-0.0231,-0.034,-0.0378,-0.038,-0.0418,-0.0391,-0.0396,-0.0391,-0.0435,-0.0435,-0.0435,-0.0435,0,0.0524,0.0561,0.0655,0.0739,0.0855,0.0901,0.0924,0.0898,0.0876,0.0734,0.0682,0.0471,0.0373,0.0134,-0.0032,-0.0178,-0.0233,-0.0268,-0.0277,-0.0279,-0.0233,-0.0176,-0.0165,0,0,0,0,0,0.0508,0.0536,0.0615,0.0698,0.0824,0.0884,0.0931,0.0937,0.0866,0.0762,0.0715,0.0526,0.0264,0.0144,-0.0006,-0.0054,-0.0264,-0.0231,-0.031,-0.0435,-0.0435,-0.0409,0,0,0,0,0,0,0.0487,0.0558,0.0584,0.0662,0.0712,0.0827,0.0859,0.0834,0.0752,0.0675,0.0532,0.0515,0.0255,0.0348,-0.0004,-0.0048,-0.0112,-0.0334,-0.0336,-0.0435,-0.0435,-0.0435,-0.0408,0,0,0,0,0]}]]